Location: Andiroba
(19.8650°S, 43.9258°W)
Time: 00:20:42
(UTC+00:00)

Cosmos 1607 - Pass Details

Date: 15 June 2024
Orbit: 910 x 991 km, 65.0° (Epoch: 24 July)

Event Time Altitude Azimuth Distance (km) Brightness Sun altitude
Rises 08:25:53 0° 331° (NNW) 3,580 6.9 -14.4°
Reaches altitude 10° 08:28:26 10° 329° (NNW) 2,630 6.2 -13.9°
Maximum altitude 08:34:31 69° 246° (WSW) 984 3.8 -12.5°
Drops below altitude 10° 08:40:35 10° 162° (SSE) 2,616 6.2 -11.2°
Sets 08:43:07 0° 160° (SSE) 3,559 6.9 -10.6°
